This is the latest recevied weather packets stored in our database for station/object K8JMX-13. If no packets are shown the sender has not sent any weather packets the latest 10 day(s).
| Time | Temp. | Humidity | Pressure | Rain* | Wind** | Luminosity | Snow |
|---|---|---|---|---|---|---|---|
| 1777910093 | 18.33° C | 54% | 1007.6 hPa | 0 mm | - | 65 W/m² | - |
| 1777909790 | 18.33° C | 54% | 1007.5 hPa | 0 mm | - | 82 W/m² | - |
| 1777909487 | 18.33° C | 53% | 1007.7 hPa | 0 mm | - | 67 W/m² | - |
| 1777909184 | 18.33° C | 54% | 1007.6 hPa | 0 mm | - | 157 W/m² | - |
| 1777908882 | 17.78° C | 54% | 1007.6 hPa | 0 mm | - | 83 W/m² | - |
| 1777908580 | 17.78° C | 54% | 1007.7 hPa | 0 mm | - | 61 W/m² | - |
| 1777908276 | 17.78° C | 55% | 1007.8 hPa | 0 mm | - | 74 W/m² | - |
| 1777907972 | 17.78° C | 54% | 1007.5 hPa | 0 mm | - | 322 W/m² | - |
| 1777907668 | 17.22° C | 54% | 1007.8 hPa | 0 mm | - | 401 W/m² | - |
| 1777907364 | 17.22° C | 55% | 1007.8 hPa | 0 mm | - | 63 W/m² | - |
| 1777907060 | 17.22° C | 54% | 1007.8 hPa | 0 mm | - | 58 W/m² | - |
| 1777906758 | 17.22° C | 55% | 1007.9 hPa | 0 mm | - | 97 W/m² | - |
| 1777906454 | 16.67° C | 56% | 1008.1 hPa | 0 mm | - | 64 W/m² | - |
| 1777906151 | 16.67° C | 57% | 1008 hPa | 0 mm | - | 79 W/m² | - |
| 1777905848 | 16.67° C | 56% | 1008 hPa | 0 mm | - | 66 W/m² | - |
| 1777905545 | 16.67° C | 56% | 1008 hPa | 0 mm | - | 79 W/m² | - |
| 1777905242 | 16.11° C | 55% | 1008 hPa | 0 mm | - | 73 W/m² | - |
| 1777904939 | 16.11° C | 56% | 1007.8 hPa | 0 mm | - | 122 W/m² | - |
| 1777904636 | 15.56° C | 56% | 1007.9 hPa | 0 mm | - | 154 W/m² | - |
| 1777904333 | 15.56° C | 57% | 1008 hPa | 0 mm | - | 54 W/m² | - |
| 1777904030 | 15.56° C | 57% | 1008 hPa | 0 mm | - | 50 W/m² | - |
| 1777903727 | 15.56° C | 56% | 1008 hPa | 0 mm | - | 62 W/m² | - |
| 1777903423 | 15° C | 58% | 1008.1 hPa | 0 mm | - | 66 W/m² | - |
| 1777903119 | 14.44° C | 58% | 1008.4 hPa | 0 mm | - | 66 W/m² | - |
| 1777902816 | 14.44° C | 58% | 1008.4 hPa | 0 mm | - | 124 W/m² | - |
* Rain latest hour (hover to see other rain measurements)
** Current wind speed in m/s (hover to see current wind gust speed)